GFSNIL_925_spd_000.txt.gz
Wind_Speed
12 11 10 9 7 7 7 8 9 11 12 13 14 15 17 19 21 22 24 25 26 27
11 10 9 7 7 7 7 7 10 10 12 13 15 17 19 21 24 25 27 29 29 28
9 8 7 6 7 7 7 8 10 11 13 15 17 19 21 24 26 28 29 27 28 32
8 7 6 6 6 7 7 8 10 12 15 18 20 22 24 26 27 26 31 28 29 30
7 6 5 6 6 6 8 9 12 14 17 20 23 24 26 27 28 30 26 28 29 30
6 5 5 5 6 7 9 12 14 16 19 22 25 26 27 28 29 23 29 28 29 30
4 4 3 5 7 9 11 14 16 19 21 24 26 27 29 27 27 28 25 28 29 30
4 3 4 6 8 10 13 15 18 21 24 26 27 25 25 29 28 27 26 28 30 30
2 3 4 6 9 12 15 18 21 24 25 26 27 25 27 27 28 25 26 30 30 30
2 3 5 7 10 13 17 21 23 24 26 27 27 26 26 27 27 25 27 28 30 30
1 4 6 9 12 15 19 22 24 26 27 27 28 26 27 27 25 27 26 27 29 28
3 5 7 10 14 18 21 24 26 25 27 28 30 26 27 25 26 22 26 27 27 28
3 5 9 12 17 20 22 24 25 28 27 28 29 28 25 24 25 25 25 26 23 28
3 7 10 15 19 21 22 24 27 28 29 27 25 26 25 27 29 25 27 26 28 28

GFSNIL_925_spd_003.txt.gz
Wind_Speed
15 14 12 10 8 8 7 6 8 9 10 11 13 14 16 18 20 22 24 26 28 30
14 12 12 10 8 7 5 5 7 9 11 13 15 16 18 20 23 25 28 28 28 28
14 12 10 8 8 6 5 6 8 10 13 15 18 19 21 23 26 26 27 28 28 26
13 11 9 8 6 5 5 7 9 12 15 18 21 22 24 25 26 26 29 24 23 28
12 10 8 6 4 4 6 8 11 14 17 20 22 25 26 26 27 29 22 26 27 26
11 9 6 3 3 5 8 11 14 16 19 22 25 27 27 27 26 22 25 24 26 26
10 7 4 2 4 7 9 12 15 18 21 24 26 27 25 26 27 28 25 23 23 27
8 4 2 3 6 8 11 14 17 20 22 24 27 24 26 28 28 27 24 23 25 25
6 3 2 4 7 10 13 16 19 21 24 27 28 28 27 26 28 27 23 23 27 27
4 3 3 5 8 11 15 18 21 25 26 28 30 27 27 27 29 27 26 28 27 26
3 1 3 6 9 13 17 20 23 26 27 29 30 27 27 29 28 28 26 26 26 27
1 3 5 8 12 15 19 23 25 28 29 29 28 27 27 28 26 24 26 24 21 21
2 4 7 9 14 17 20 23 27 28 27 26 26 24 27 26 27 26 24 22 21 25
2 4 7 11 15 20 23 25 27 28 27 24 22 25 25 26 26 23 25 25 26 27

GFSNIL_925_spd_006.txt.gz
Wind_Speed
21 19 16 13 11 8 5 3 4 5 7 9 11 14 15 17 19 20 21 21 21 22
20 17 16 13 10 6 4 2 4 6 9 11 13 15 17 20 21 22 22 23 22 21
19 16 14 12 9 5 2 2 5 8 10 13 15 18 20 22 23 23 24 23 20 23
18 15 13 10 7 4 2 4 7 10 12 15 18 20 22 23 24 23 24 22 22 22
17 14 11 8 5 2 3 6 9 11 14 17 20 22 24 24 22 24 25 25 21 21
15 12 9 6 3 3 5 7 10 13 17 20 22 24 24 21 24 26 26 24 18 21
13 9 7 4 2 4 6 9 12 16 18 21 23 23 21 25 27 26 26 21 19 20
11 8 5 2 2 4 7 10 14 17 20 22 23 20 24 25 26 27 27 25 22 24
9 6 3 1 3 6 9 13 17 19 21 22 24 22 23 25 27 29 28 29 28 27
7 5 2 2 4 8 12 16 19 20 22 23 25 21 23 25 27 26 24 25 27 27
6 3 1 3 6 10 14 17 19 21 22 23 23 21 23 26 24 26 27 26 24 23
4 2 2 5 9 12 16 19 20 22 23 23 23 21 23 25 25 23 26 24 24 24
3 2 4 7 11 14 16 18 20 23 22 21 22 22 23 24 23 22 24 25 24 26
2 3 6 8 12 15 17 20 23 22 23 21 20 22 22 22 24 24 27 26 25 26

GFSNIL_925_spd_009.txt.gz
Wind_Speed
24 23 20 18 14 10 7 4 3 3 4 6 8 10 12 15 16 16 17 17 18 15
23 21 19 16 12 9 6 3 1 3 5 7 10 12 14 16 18 19 18 18 18 16
21 18 16 14 12 8 5 2 2 4 7 10 12 14 16 18 18 18 19 20 20 19
20 17 15 12 9 6 3 2 4 7 9 12 15 17 18 19 18 19 21 22 21 21
19 16 13 11 7 4 2 3 6 8 11 14 16 17 18 17 19 21 22 23 23 21
17 14 12 9 6 3 3 4 6 10 13 16 17 18 17 19 20 21 22 23 23 23
15 12 10 7 4 2 3 5 9 12 14 15 16 17 18 20 21 22 23 24 24 23
14 11 9 6 3 2 4 8 10 12 14 16 18 19 18 20 21 22 22 21 22 23
13 10 7 4 2 3 6 9 11 13 16 18 20 17 18 18 22 20 24 26 25 24
12 9 6 3 2 5 7 11 13 16 18 19 19 16 18 19 19 22 23 25 27 27
11 8 5 3 3 5 10 13 15 17 19 19 18 17 19 20 21 22 23 26 27 28
9 6 4 3 4 8 11 13 16 18 18 18 18 18 19 21 23 25 26 28 27 25
7 5 4 4 6 9 11 14 16 17 17 16 18 20 19 21 23 23 25 23 23 22
7 5 4 4 7 10 13 15 15 17 17 17 19 21 20 20 24 25 25 24 23 24

GFSNIL_925_spd_012.txt.gz
Wind_Speed
31 30 26 21 17 13 11 9 7 6 5 5 5 6 7 10 11 12 12 11 12 12
28 26 24 18 14 13 11 9 7 5 4 4 5 7 9 11 13 13 12 14 14 15
25 23 21 18 16 13 10 7 5 4 4 4 6 8 11 12 12 13 15 17 17 18
25 22 20 18 15 11 9 6 4 3 3 6 8 10 12 12 14 16 18 19 20 21
24 22 20 17 13 10 8 5 4 3 5 8 10 12 13 14 16 18 20 21 21 23
23 21 18 15 12 9 6 4 3 4 7 10 12 13 13 15 17 18 19 20 21 22
21 18 16 13 10 7 5 4 4 6 8 10 13 15 15 16 16 17 18 20 22 24
20 17 15 12 9 7 5 4 5 7 9 12 15 17 14 15 16 18 19 22 21 21
19 16 13 10 8 6 4 5 6 9 12 15 16 15 14 16 18 17 22 23 24 25
18 15 12 9 7 5 4 6 8 11 14 15 16 14 16 17 18 19 22 24 27 28
16 14 11 8 6 4 5 8 11 14 14 16 17 15 17 18 19 20 23 26 26 27
14 13 10 7 5 4 6 9 12 14 16 17 17 17 18 19 21 23 26 26 23 23
13 11 9 6 4 5 7 10 12 14 15 15 17 19 18 19 21 23 24 20 21 19
12 10 7 5 4 6 9 11 12 15 16 17 18 20 18 19 22 25 23 22 20 24

GFSNIL_925_spd_015.txt.gz
Wind_Speed
34 37 36 33 28 23 20 17 13 10 7 5 4 4 5 6 7 7 6 6 8 10
34 36 34 28 24 21 19 16 12 8 6 4 3 4 5 7 7 7 8 10 11 12
32 33 30 26 23 21 18 15 11 8 5 3 3 4 6 7 7 9 10 10 12 12
33 31 28 25 22 19 16 13 10 7 4 3 3 5 7 7 8 10 12 12 11 14
33 31 28 24 21 17 15 12 8 6 3 3 4 6 7 8 10 11 12 13 14 15
32 30 27 24 20 16 14 11 8 5 3 4 6 7 8 9 11 11 12 14 15 16
30 28 25 22 19 15 12 9 6 4 4 5 8 9 10 10 12 12 15 16 18 17
28 25 23 20 17 14 11 8 5 3 4 7 10 10 10 11 13 15 16 19 19 17
27 24 21 19 16 13 10 6 3 4 7 9 11 11 10 12 13 15 14 17 17 20
25 22 19 17 14 11 7 4 4 6 9 10 12 10 12 13 13 14 16 19 20 20
23 21 18 15 12 9 5 3 5 7 9 11 12 12 13 14 14 15 17 21 21 20
21 20 17 13 10 6 4 4 6 8 10 13 13 14 14 15 15 16 18 20 19 18
19 17 14 11 8 5 4 5 7 9 10 11 14 15 15 16 15 17 20 18 18 18
16 15 12 9 6 4 4 6 8 10 12 13 14 16 15 15 17 19 20 21 21 24

GFSNIL_925_spd_018.txt.gz
Wind_Speed
33 31 28 28 24 20 18 15 14 12 9 8 7 5 4 2 1 2 3 5 7 9
29 29 27 24 22 20 17 16 14 12 9 7 6 4 2 1 2 3 4 6 8 10
31 28 28 24 21 19 17 16 14 12 9 7 5 2 1 1 2 4 5 7 9 11
28 28 24 22 20 18 17 15 13 11 8 6 3 1 1 2 3 5 7 8 10 12
29 27 23 21 19 17 16 13 12 10 7 5 2 1 2 4 5 7 9 10 11 13
26 24 22 21 19 16 15 12 10 8 6 4 1 1 3 5 7 9 10 11 13 15
25 23 22 20 18 16 13 11 8 6 4 2 1 2 4 6 9 10 12 13 14 16
23 22 21 20 17 15 12 9 7 5 2 1 2 3 6 8 10 12 14 15 16 16
24 22 19 18 16 14 11 8 5 3 0 2 3 6 6 9 12 13 14 16 17 18
22 21 18 17 15 12 9 6 4 1 1 3 4 6 8 10 12 13 15 16 18 20
21 20 17 15 13 10 7 4 2 0 2 4 5 8 10 11 12 13 15 17 19 20
19 19 16 14 11 7 5 3 1 1 3 5 6 9 10 12 13 14 16 18 19 19
17 17 15 12 9 6 4 2 1 2 4 6 7 9 11 12 13 16 18 19 20 20
16 14 13 10 7 5 2 0 2 4 6 6 7 9 12 12 14 16 20 20 22 21

GFSNIL_925_spd_021.txt.gz
Wind_Speed
28 27 29 32 32 26 24 19 18 15 12 11 9 6 5 3 1 2 3 5 6 8
30 28 30 29 26 24 21 20 17 15 13 10 8 5 3 2 2 3 5 6 7 9
27 29 30 30 26 24 20 20 18 15 12 9 7 4 2 2 3 4 6 7 8 10
30 31 30 27 27 26 22 20 17 14 11 8 5 3 2 3 5 6 8 9 10 11
29 32 29 27 26 23 22 18 17 14 11 7 4 2 2 5 6 8 10 10 11 12
30 30 29 26 24 22 21 18 15 13 10 7 4 1 3 6 8 10 11 11 12 14
29 29 27 26 23 20 18 16 13 11 9 6 3 1 4 7 9 11 12 13 14 14
29 27 26 23 22 20 17 14 11 10 7 4 2 1 5 8 11 13 14 15 15 15
29 28 26 23 20 19 16 13 10 7 5 2 1 6 6 8 11 13 15 15 15 16
28 27 25 23 20 17 12 10 8 5 3 1 2 8 7 9 11 14 14 15 16 17
27 26 25 21 16 15 10 8 6 4 1 2 4 10 9 10 12 14 15 15 17 18
25 23 20 18 15 12 9 7 4 2 1 3 5 9 10 11 13 14 16 16 17 18
22 21 18 16 13 10 7 5 2 1 3 5 6 6 8 11 12 15 16 17 18 18
21 20 17 14 10 8 5 3 1 3 5 6 6 8 9 11 12 14 17 18 18 19

GFSNIL_925_spd_024.txt.gz
Wind_Speed
33 35 35 36 35 32 32 31 28 24 21 18 16 13 10 7 5 2 1 2 4 6
33 34 34 31 32 30 29 32 28 24 21 18 15 12 9 6 3 2 2 3 5 6
31 33 34 34 31 29 31 30 29 24 21 18 14 11 9 6 4 2 3 4 7 9
29 30 31 31 30 34 32 31 28 24 21 17 13 10 7 5 4 3 4 6 8 9
32 31 31 29 31 33 30 29 26 22 19 15 11 8 6 4 3 4 6 8 9 11
32 32 31 32 31 31 30 27 24 21 18 14 10 7 4 3 4 6 7 9 10 12
29 32 32 32 32 33 29 27 23 20 16 11 8 4 2 1 4 7 9 10 11 13
30 32 32 33 33 30 27 24 21 18 14 10 6 4 4 4 6 8 10 12 13 13
32 32 30 29 32 30 27 23 19 14 10 8 5 3 4 5 8 10 11 13 14 15
27 28 27 29 26 27 24 20 17 11 8 6 2 3 6 6 9 11 11 14 16 16
31 22 22 25 24 21 19 17 14 9 6 4 1 5 7 8 10 11 12 14 16 14
32 23 19 22 24 21 17 13 9 6 3 3 1 4 8 8 11 12 13 13 15 16
25 25 22 23 21 16 11 10 6 4 1 2 3 2 6 7 11 13 14 16 17 16
25 25 22 19 16 13 10 7 4 1 1 3 5 6 5 8 11 13 16 18 20 19

GFSNIL_925_spd_027.txt.gz
Wind_Speed
41 39 36 39 34 32 34 37 36 33 30 26 23 19 16 14 11 8 6 5 4 3
35 35 36 36 35 32 30 38 37 33 29 25 22 18 15 13 10 7 5 3 2 3
34 33 32 35 34 31 32 33 35 31 28 25 21 18 14 12 9 6 5 3 4 5
32 31 32 33 32 32 32 36 34 29 27 25 21 17 14 10 8 5 4 4 5 6
33 32 31 30 29 32 36 34 29 31 27 24 19 15 13 10 7 4 3 4 6 8
32 31 29 31 35 35 34 35 32 28 25 22 19 15 11 8 6 3 3 5 6 7
29 29 32 33 33 36 35 35 33 30 25 20 16 13 9 6 4 3 3 5 6 7
27 28 29 30 29 30 31 32 31 26 23 19 14 10 6 4 2 2 4 6 7 7
29 28 29 30 29 27 27 25 24 21 20 16 11 8 5 2 1 4 6 8 8 10
31 31 29 34 33 27 23 21 15 14 12 12 9 5 3 3 4 5 7 9 11 13
32 32 30 30 30 27 22 18 14 12 10 9 8 4 4 4 5 6 7 8 9 12
30 30 27 23 26 21 20 19 14 11 9 8 7 2 3 4 7 9 9 9 13 14
28 26 24 21 23 22 18 14 12 9 7 6 5 4 3 6 8 12 12 12 14 15
27 25 20 20 20 16 14 13 10 8 5 3 3 3 4 5 8 11 12 14 18 17

GFSNIL_925_spd_030.txt.gz
Wind_Speed
43 45 43 44 42 39 39 39 39 37 35 34 31 27 24 19 17 15 12 11 8 7
39 39 42 41 40 39 37 37 36 36 35 34 30 27 23 21 18 14 12 9 8 6
37 40 39 38 36 36 35 36 38 37 36 33 29 26 22 19 16 13 11 9 8 6
34 33 31 33 33 35 35 36 37 37 34 31 29 26 21 19 16 13 11 9 7 6
32 31 30 31 32 34 34 35 39 38 37 33 27 18 22 17 15 12 10 8 6 6
31 32 32 31 31 32 35 35 35 35 32 30 23 24 16 14 12 10 9 6 6 7
25 27 27 29 29 29 28 31 31 27 25 21 21 16 13 12 11 9 6 5 5 6
25 25 28 28 27 27 28 27 27 28 26 20 15 14 13 10 9 6 4 5 4 6
26 28 29 32 32 33 33 31 28 24 22 18 16 12 9 8 6 3 3 2 4 6
28 28 31 32 32 31 31 28 24 19 16 12 12 8 3 4 3 1 1 2 4 6
30 32 32 33 32 30 25 25 23 19 13 8 6 7 5 2 1 2 2 3 5 8
31 33 34 31 27 27 22 18 15 12 12 14 11 6 4 2 2 5 5 4 6 9
23 27 28 28 24 21 18 15 15 14 10 8 8 6 2 4 5 8 8 8 10 12
25 26 25 23 20 19 18 15 13 10 8 6 5 4 1 4 8 8 8 13 17 16

GFSNIL_925_spd_033.txt.gz
Wind_Speed
32 37 39 40 40 42 45 47 49 45 42 39 36 33 31 28 24 22 19 16 13 11
27 33 38 39 40 37 35 39 43 41 39 36 35 33 31 29 23 21 18 15 13 11
25 31 36 36 36 35 35 34 38 39 36 34 33 31 29 27 22 18 16 12 10 9
22 27 30 30 30 32 30 32 33 36 34 34 34 32 27 23 22 18 14 10 9 9
20 21 25 26 27 28 29 29 30 31 31 32 32 28 26 22 16 12 11 9 13 10
18 19 21 22 23 25 27 28 27 29 30 30 30 25 19 16 13 14 10 10 11 9
12 16 19 20 22 23 27 30 30 29 31 30 25 21 16 13 10 9 8 5 7 8
12 15 19 23 25 24 25 27 29 32 28 24 22 20 18 15 9 7 3 5 7 9
22 24 25 27 28 28 27 27 28 28 26 23 16 13 12 10 8 4 2 7 7 8
23 24 25 28 28 28 30 30 32 29 25 23 22 14 10 7 4 2 5 4 5 5
23 23 25 27 30 33 32 31 28 25 20 17 11 7 4 5 4 1 3 3 4 6
28 24 24 21 26 26 30 28 23 19 17 13 9 9 9 4 2 1 3 3 5 8
21 23 22 22 25 24 24 22 17 14 13 9 12 9 5 1 2 5 5 5 7 11
22 25 24 22 20 19 20 17 14 15 13 9 8 7 1 2 5 4 5 10 14 13

GFSNIL_925_spd_036.txt.gz
Wind_Speed
25 30 35 36 36 38 39 43 46 48 46 46 46 44 39 36 34 30 26 22 16 9
17 24 31 34 35 37 37 35 36 40 44 43 41 39 35 35 32 27 23 20 17 18
17 21 28 30 31 32 32 31 31 34 38 37 35 33 33 32 28 25 20 18 17 14
16 16 22 25 25 25 25 26 25 28 30 30 29 30 32 29 25 23 20 15 15 13
15 13 16 18 17 17 19 20 23 24 26 27 28 30 30 28 25 21 20 18 8 8
12 10 10 11 11 13 18 20 22 24 26 27 27 27 27 27 24 20 13 11 7 4
9 4 7 9 12 14 16 20 22 23 25 26 27 29 27 23 17 13 12 9 6 1
1 7 12 14 16 17 20 22 23 25 26 30 29 26 22 20 17 14 12 8 4 4
12 14 17 19 19 20 21 22 24 28 30 28 26 23 20 18 15 11 8 3 3 2
13 18 20 21 22 23 23 26 29 28 29 27 23 21 19 16 12 7 4 3 4 1
12 19 21 21 24 25 27 28 29 27 27 27 19 15 12 9 10 6 6 3 1 1
14 17 21 24 24 24 26 25 24 23 21 20 18 15 13 11 10 6 4 4 2 3
17 20 24 25 24 24 25 23 20 19 18 16 14 10 9 7 7 3 3 2 3 7
17 20 22 24 22 22 21 20 17 16 15 14 11 9 6 2 4 1 0 5 8 8

GFSNIL_925_spd_039.txt.gz
Wind_Speed
15 24 30 32 30 29 31 33 32 37 42 46 46 45 44 43 42 41 38 35 27 22
14 17 22 26 27 28 30 33 32 31 33 33 36 37 38 35 35 36 34 30 24 22
13 12 14 17 21 23 24 26 27 26 27 31 31 30 26 27 29 31 30 26 23 20
13 12 11 13 14 16 18 20 21 22 24 26 28 30 28 28 28 26 25 25 23 14
17 15 12 11 10 9 10 13 15 17 19 20 20 25 28 27 26 27 24 22 20 17
11 12 10 8 6 6 7 10 11 14 16 18 20 23 24 26 28 29 27 22 19 15
10 6 5 3 2 5 9 11 14 16 18 21 22 24 26 29 31 27 22 19 16 13
10 9 5 5 7 8 11 14 16 18 19 20 23 26 31 30 27 25 21 15 13 9
12 9 7 9 10 11 14 16 18 20 23 24 26 27 26 25 24 20 17 15 11 9
10 10 10 11 13 15 18 20 24 25 26 25 24 23 22 21 21 18 14 11 8 6
11 13 14 15 17 20 22 24 28 28 30 28 21 21 20 18 16 14 12 10 8 6
12 14 15 19 20 20 24 27 27 26 25 24 19 17 17 16 14 12 12 10 6 3
15 17 19 19 20 22 24 26 24 23 21 18 17 14 16 14 12 10 8 6 3 2
18 19 20 21 21 21 23 23 22 21 18 14 10 9 8 7 6 5 4 1 2 3

GFSNIL_925_spd_042.txt.gz
Wind_Speed
8 11 15 20 23 22 22 21 20 24 32 34 32 29 28 28 31 33 36 32 28 29
9 9 11 13 15 18 19 20 20 19 22 27 28 30 29 28 27 26 27 27 27 30
8 8 9 9 11 13 15 15 17 17 18 21 24 25 26 25 23 24 21 20 22 20
10 9 8 9 10 11 12 10 12 13 14 15 17 20 24 23 22 22 20 21 24 23
11 10 10 9 7 8 10 8 8 10 11 12 15 15 19 23 23 24 23 22 24 24
12 12 10 8 8 7 4 4 4 5 6 8 10 13 15 19 20 20 22 23 23 23
12 11 10 8 7 6 4 4 6 5 3 5 8 11 15 19 22 23 24 22 20 19
11 10 9 9 8 7 7 7 7 7 8 10 12 15 18 21 24 26 24 21 18 16
9 10 11 10 11 11 9 9 11 10 11 14 14 14 17 23 25 24 23 21 17 14
9 11 12 12 14 15 16 16 19 19 19 21 21 19 19 21 21 19 17 16 14 9
10 11 13 15 16 17 18 20 20 21 21 21 19 19 16 18 18 17 14 11 9 6
11 14 16 18 18 18 20 21 23 21 22 21 19 18 18 17 14 14 11 8 6 5
14 16 19 19 21 22 23 23 21 19 17 15 18 16 15 12 10 8 6 5 3 1
17 18 19 19 20 21 21 20 19 16 12 11 10 9 8 7 5 4 3 3 2 1

GFSNIL_925_spd_045.txt.gz
Wind_Speed
10 10 11 13 18 20 20 20 19 22 25 28 31 33 34 30 31 30 33 34 30 24
10 10 11 11 12 15 16 18 19 17 19 21 25 28 29 31 30 27 27 27 24 23
8 7 8 8 9 10 12 13 15 16 15 17 17 21 25 27 26 26 24 23 23 24
9 9 9 8 9 9 9 10 11 12 12 13 14 14 17 21 20 20 20 22 24 22
10 10 10 10 10 11 11 10 8 7 9 7 11 8 10 13 15 20 20 20 19 19
11 11 10 10 10 11 11 10 8 4 3 3 5 6 4 9 13 15 16 17 18 21
10 10 9 10 11 11 9 8 8 6 2 3 4 4 6 7 10 10 11 15 18 18
9 10 11 13 12 10 9 8 6 6 8 7 7 6 5 9 12 13 15 16 16 15
10 12 13 12 10 11 11 10 11 12 12 11 15 11 7 9 15 19 19 17 17 16
10 11 11 9 10 13 15 17 21 22 21 22 19 15 14 13 14 16 17 17 15 12
9 10 9 9 13 15 17 19 21 22 23 25 18 16 13 13 15 15 14 12 11 9
11 12 12 15 16 17 19 22 22 20 19 20 16 14 13 12 11 10 10 9 8 6
13 15 17 17 18 19 19 19 17 17 16 14 14 14 13 10 7 5 6 5 3 2
15 15 15 16 16 16 16 15 15 14 11 8 8 7 7 7 6 5 3 2 1 1

GFSNIL_925_spd_048.txt.gz
Wind_Speed
11 12 10 10 12 13 14 17 17 15 22 25 24 27 30 33 34 32 34 36 32 31
11 11 10 10 11 11 10 11 10 10 12 15 18 19 22 27 29 30 30 32 32 27
11 10 10 10 10 11 12 13 13 12 10 7 12 18 17 20 22 23 26 29 30 26
12 11 10 10 9 10 9 10 9 10 12 13 14 17 17 16 17 15 17 18 20 23
12 12 11 10 9 9 10 10 10 9 9 9 9 9 11 13 13 15 14 14 15 16
12 11 11 10 8 7 9 8 9 9 8 7 7 6 7 8 9 11 9 11 11 11
12 11 10 10 10 8 6 6 7 8 9 9 8 5 4 3 3 3 3 5 2 6
10 10 9 10 9 8 10 11 11 10 10 10 9 9 5 4 7 7 8 7 6 6
7 8 9 9 9 13 14 16 17 18 18 18 15 11 9 7 11 13 13 14 12 12
6 7 9 9 12 13 17 17 18 19 18 18 15 13 13 13 16 16 14 13 11 10
9 10 10 13 15 17 18 19 19 19 19 19 15 13 13 14 15 15 12 9 8 7
9 11 13 15 15 16 17 17 16 15 17 18 16 14 12 12 12 11 9 9 9 6
11 12 14 14 14 14 14 15 15 16 16 16 16 14 13 13 12 9 8 6 4 2
11 12 12 12 11 11 14 14 13 12 13 12 11 10 10 8 5 5 3 2 1 3

GFSNIL_925_spd_051.txt.gz
Wind_Speed
9 8 6 7 7 7 7 7 8 9 9 9 16 19 19 21 24 27 27 30 33 37
10 9 9 8 7 8 9 10 10 10 8 6 8 12 15 18 19 22 23 25 28 26
9 8 8 6 7 7 9 10 10 10 10 8 8 8 10 15 17 18 18 17 18 23
8 7 6 6 7 9 10 11 11 11 10 9 9 11 11 13 14 16 17 16 15 18
6 6 6 7 8 8 8 9 10 10 8 8 9 8 7 7 8 9 11 11 11 12
7 7 9 9 9 7 6 7 8 9 10 8 7 7 5 5 5 7 6 6 6 7
8 9 9 9 9 8 8 8 9 8 6 6 7 6 6 4 4 5 5 5 3 4
8 8 9 10 10 10 11 12 10 9 11 12 12 9 7 7 7 7 6 6 6 5
7 7 8 9 10 11 12 13 14 14 15 18 16 12 13 11 12 12 12 12 12 13
6 7 8 9 11 12 13 13 14 16 18 18 17 16 14 14 15 14 12 10 10 10
7 8 10 13 13 14 15 15 15 16 16 18 15 14 13 13 12 12 11 9 9 8
9 12 12 13 14 13 12 13 14 14 13 14 14 12 13 12 11 11 11 10 10 8
12 13 13 13 13 12 12 12 14 15 14 12 13 10 9 8 8 9 7 6 5 7
12 13 12 11 11 12 12 10 9 9 8 8 8 9 9 8 7 6 4 4 5 5

GFSNIL_925_spd_054.txt.gz
Wind_Speed
4 3 4 3 3 4 5 6 9 9 8 8 8 9 11 13 13 14 15 19 21 26
4 3 3 3 2 4 5 7 9 10 10 8 7 8 9 9 10 11 17 17 16 19
5 5 4 2 4 5 7 8 9 9 8 7 8 8 7 6 8 9 12 16 16 14
3 3 3 4 5 7 7 8 9 10 9 9 9 8 7 6 7 6 7 9 10 9
3 4 4 5 5 6 6 7 7 8 8 8 9 10 9 8 7 6 6 7 7 7
4 5 5 6 6 5 5 5 6 7 8 8 8 8 8 6 6 5 6 7 7 7
5 5 5 6 6 6 7 7 8 9 10 10 9 7 7 5 4 4 6 6 6 7
4 5 4 4 5 7 10 11 11 12 13 14 14 12 9 7 9 10 11 11 11 12
2 3 4 5 8 9 12 13 13 15 17 18 17 14 11 11 14 15 15 14 14 13
3 5 7 8 10 11 12 13 15 15 15 16 15 12 12 12 13 13 12 11 11 10
6 9 10 11 13 13 13 13 14 13 13 15 13 11 12 10 10 11 12 12 11 10
7 10 11 12 12 11 11 12 13 12 11 13 13 11 10 9 10 10 10 10 10 8
9 11 12 11 10 10 10 14 13 12 12 12 12 7 6 6 6 6 5 5 4 5
12 12 11 11 10 10 11 11 9 8 7 7 7 7 7 7 7 6 5 5 5 5

GFSNIL_925_spd_057.txt.gz
Wind_Speed
2 2 1 1 1 2 4 7 9 9 8 8 7 6 7 10 10 11 12 12 10 11
2 1 2 1 1 2 3 5 7 8 9 8 7 6 4 3 3 4 5 4 7 8
2 2 1 1 2 3 4 5 6 6 6 7 7 7 5 2 1 2 2 3 3 3
0 1 2 3 4 4 5 5 5 5 6 7 7 7 6 5 4 2 3 4 5 5
2 2 2 3 3 4 4 5 5 5 5 7 8 8 8 7 6 6 7 7 6 6
1 1 2 3 4 4 4 5 5 6 7 8 9 7 6 5 5 6 7 6 6 6
1 2 3 4 5 5 7 7 8 9 9 10 9 8 7 6 7 8 9 9 9 10
3 3 3 3 4 6 8 10 10 11 13 14 15 13 10 11 13 13 16 16 15 15
3 2 3 4 5 7 9 10 11 12 15 17 16 15 15 16 17 16 16 15 12 10
3 4 5 5 6 8 9 10 12 14 15 17 14 13 14 13 14 15 14 12 10 10
5 6 6 7 8 9 10 11 12 13 12 13 12 11 12 12 13 13 13 12 10 9
6 9 10 10 9 9 11 12 11 10 10 11 12 10 9 9 9 9 9 9 9 9
10 12 11 10 10 10 10 10 10 10 10 10 11 7 6 5 4 5 5 5 5 4
12 12 11 11 10 11 13 11 10 6 5 5 5 5 4 5 6 6 5 5 5 6

GFSNIL_925_spd_060.txt.gz
Wind_Speed
0 1 1 2 2 2 3 5 7 8 9 9 9 9 8 6 8 10 11 11 11 9
1 2 1 1 1 2 3 4 6 6 6 6 5 5 4 2 4 5 6 7 7 7
2 1 1 1 1 2 3 4 5 5 5 5 5 4 2 1 2 3 3 3 4 5
2 2 2 2 2 3 3 3 3 3 4 4 5 5 4 3 3 3 4 4 4 4
2 2 2 2 2 1 1 1 1 2 2 3 4 5 5 4 6 7 7 7 6 6
2 1 1 1 1 2 2 2 2 3 3 4 4 4 5 4 5 7 8 7 6 6
2 1 1 2 3 4 6 5 6 6 6 7 7 7 7 5 7 10 11 12 12 13
3 3 2 3 3 4 5 6 7 9 11 12 13 10 11 11 13 14 16 16 17 18
6 5 4 4 5 6 8 10 10 12 13 14 16 13 14 15 15 14 14 14 13 13
6 6 6 7 8 9 10 10 12 13 14 15 13 12 12 12 14 14 13 11 12 12
8 8 8 8 9 11 12 12 12 12 12 13 12 11 12 12 12 12 12 11 10 10
10 10 11 11 11 12 12 12 11 10 11 12 11 8 8 7 7 7 8 7 8 9
11 13 13 12 12 12 11 10 10 10 10 10 9 6 5 4 4 5 5 5 5 5
11 12 12 12 12 13 12 11 10 8 7 5 4 5 3 4 5 5 5 5 5 5

GFSNIL_925_spd_063.txt.gz
Wind_Speed
3 3 4 4 4 4 4 5 6 7 7 8 9 9 9 6 8 10 12 15 14 13
3 3 4 4 4 4 4 4 5 5 5 5 5 6 6 4 6 7 6 7 9 10
3 3 4 4 4 5 5 5 4 4 4 4 4 3 3 2 4 5 5 5 6 8
4 4 4 4 5 5 5 5 4 4 3 2 2 2 1 0 2 4 4 4 4 4
5 5 5 5 5 5 4 4 3 3 2 1 1 2 2 3 4 5 6 5 5 4
5 6 4 4 3 3 3 3 2 2 1 1 2 3 4 5 6 7 8 6 3 2
6 6 4 2 2 2 3 3 3 2 2 3 3 5 7 7 9 10 11 11 9 7
6 5 5 4 3 4 4 4 4 4 5 6 6 8 10 11 14 14 16 15 15 14
9 7 7 6 7 6 6 8 8 9 9 10 10 11 13 16 16 15 15 14 12 11
10 8 8 7 8 9 9 11 11 13 12 12 11 11 13 15 15 14 12 10 9 7
11 9 9 9 10 11 12 13 13 12 12 11 10 11 13 13 13 12 12 10 8 6
12 12 11 11 12 13 14 13 13 11 11 12 11 10 10 9 9 9 8 6 6 5
14 13 14 13 14 15 14 13 12 12 11 10 10 7 6 5 5 5 4 4 4 4
14 15 15 15 15 16 15 14 14 13 12 10 8 8 6 5 4 4 3 2 2 2

GFSNIL_925_spd_066.txt.gz
Wind_Speed
4 3 3 3 3 4 4 4 7 8 8 10 11 11 11 10 11 12 15 17 19 19
4 4 4 5 5 4 5 5 6 7 7 8 8 8 8 7 7 8 11 10 12 13
5 6 6 6 5 6 6 7 7 7 7 7 7 7 7 5 6 5 7 6 4 7
3 4 4 4 6 7 7 8 7 7 7 6 6 6 5 4 4 3 3 3 4 4
4 4 4 4 5 6 5 6 6 6 5 5 5 3 2 1 1 0 1 1 2 2
5 4 4 4 4 4 4 3 3 3 3 2 3 2 0 1 1 3 3 3 2 1
6 5 5 4 4 3 2 2 2 1 1 1 2 2 2 2 3 3 3 3 4 4
7 6 6 5 5 4 4 3 3 2 1 0 1 3 5 6 7 8 8 8 9 10
7 6 6 7 6 5 6 5 5 3 3 3 4 5 6 8 10 9 10 10 11 12
10 9 8 7 7 8 8 7 6 5 6 6 6 6 8 9 9 9 9 7 5 4
11 10 10 9 9 9 9 9 9 8 7 6 6 7 9 9 9 9 8 6 5 4
12 11 10 10 10 12 12 12 11 10 9 10 8 8 9 8 8 7 5 3 3 2
12 12 12 12 14 14 14 13 11 11 11 9 8 8 7 6 5 4 3 3 3 3
12 12 14 15 15 16 15 13 11 11 10 9 7 7 7 6 4 3 4 5 4 4

GFSNIL_925_spd_069.txt.gz
Wind_Speed
5 4 3 3 3 4 4 4 6 6 7 8 9 10 10 11 11 13 14 16 17 19
4 3 2 1 2 2 3 4 6 7 8 9 9 9 9 8 9 11 10 11 14 13
4 3 2 1 2 3 4 6 6 6 7 7 7 7 7 7 6 8 7 9 8 6
5 4 3 3 3 4 5 6 7 7 7 7 6 6 6 5 6 5 4 4 4 4
4 4 3 3 4 5 5 5 6 7 6 6 6 5 4 4 4 3 2 1 1 1
5 4 4 4 5 5 6 5 5 5 6 6 5 4 3 3 2 1 1 1 1 1
7 6 5 5 4 5 4 4 4 4 4 4 5 3 2 1 1 2 2 2 3 2
7 6 5 5 6 5 5 4 3 4 4 3 4 3 2 3 5 4 4 5 5 7
7 7 7 6 6 5 6 5 5 5 4 3 1 3 5 6 6 7 7 9 10 8
9 9 8 8 7 7 7 7 6 6 4 3 3 3 5 7 8 9 8 7 5 3
10 10 9 9 9 8 9 9 9 7 6 5 4 5 6 6 8 8 7 5 4 3
10 10 11 10 11 10 10 11 11 10 9 6 5 7 7 7 6 6 5 4 2 2
11 12 13 12 12 13 13 12 11 9 7 7 6 7 6 5 3 3 3 3 3 4
12 13 13 15 14 13 13 12 10 9 10 9 7 7 7 6 4 4 4 5 3 4

GFSNIL_925_spd_072.txt.gz
Wind_Speed
12 9 9 10 9 7 7 6 7 8 7 7 9 10 10 11 11 10 11 12 14 15
16 14 10 7 7 8 8 10 9 7 7 7 9 9 10 10 8 8 10 13 11 12
12 13 9 8 7 6 7 7 7 7 7 8 8 9 9 8 8 9 7 10 11 9
10 9 9 6 5 5 6 7 8 8 9 7 8 8 7 6 9 7 5 7 8 7
10 7 5 4 5 6 5 6 7 8 8 7 8 8 6 5 6 5 4 4 5 3
8 6 6 7 7 6 5 5 5 6 5 6 5 6 5 4 2 3 4 5 5 5
9 7 7 7 7 6 5 4 4 4 5 7 8 7 6 4 5 4 4 3 4 3
11 9 9 8 7 6 5 6 7 7 7 7 7 6 5 5 5 5 5 4 4 4
10 9 8 6 5 4 4 5 5 6 6 5 5 5 5 6 7 7 7 11 10 8
13 11 11 9 6 6 6 6 6 5 5 4 3 2 4 6 8 8 10 9 7 5
14 12 12 8 8 8 8 8 7 6 5 6 6 5 5 6 7 8 7 6 4 4
14 14 14 11 11 10 10 10 9 9 8 8 5 6 7 6 7 7 6 6 5 5
14 14 14 11 12 13 12 11 11 11 11 8 8 8 8 7 5 5 5 5 4 5
12 13 11 11 13 13 12 11 12 12 11 11 10 9 9 8 7 5 6 5 4 3

GFSNIL_925_spd_075.txt.gz
Wind_Speed
18 19 15 14 15 13 12 12 10 10 8 9 8 9 10 11 11 11 12 12 13 14
19 19 21 17 14 12 13 13 10 10 9 8 8 9 10 11 10 10 10 11 14 15
12 14 12 12 10 11 12 10 8 8 7 6 7 8 10 10 9 10 11 11 9 11
14 12 12 11 11 9 7 4 7 6 7 7 8 9 10 10 9 10 9 10 10 9
14 12 11 10 8 8 7 5 5 6 6 6 8 9 9 9 9 9 8 8 7 7
15 12 11 10 9 6 5 4 5 5 5 6 7 8 8 7 7 8 7 7 8 8
14 13 13 11 7 6 5 5 5 5 6 7 8 9 8 7 7 7 7 6 6 6
16 14 13 11 9 7 5 5 5 6 8 8 9 9 9 8 9 9 7 5 4 4
17 15 14 12 10 7 5 5 6 6 7 6 7 8 8 7 8 8 8 9 8 7
19 17 14 11 8 7 6 6 7 7 6 6 6 4 4 6 8 9 9 10 8 6
18 16 14 14 12 9 10 10 9 8 8 8 6 6 5 7 8 10 10 7 6 4
20 18 18 18 14 11 12 11 11 11 10 10 9 7 7 8 9 10 9 8 7 6
20 19 19 18 15 12 13 13 12 12 11 11 10 8 10 10 10 10 10 8 7 6
17 17 17 16 14 13 13 13 14 13 13 13 11 11 12 11 10 10 10 9 9 10

GFSNIL_925_spd_078.txt.gz
Wind_Speed
19 19 20 21 18 18 16 12 11 12 10 10 11 11 10 11 13 14 15 16 17 18
15 17 19 18 16 16 15 15 14 13 11 9 11 11 11 13 13 14 14 14 14 15
13 13 13 14 17 15 11 9 9 10 11 10 10 11 12 12 13 13 13 14 15 15
15 15 15 15 13 12 12 11 10 10 11 10 11 12 11 12 13 13 12 13 14 14
15 14 13 12 11 11 9 8 9 10 10 11 11 11 11 11 12 14 13 12 13 13
15 14 13 12 11 8 7 8 10 10 9 10 9 9 10 10 11 11 11 10 10 10
15 14 13 12 11 8 8 9 10 10 9 8 8 10 10 10 10 10 9 9 9 9
16 14 13 13 11 10 10 9 8 8 8 9 9 10 10 11 11 11 11 12 7 6
17 16 15 14 12 10 9 9 10 10 10 9 8 9 10 11 11 11 10 8 6 5
19 18 16 14 13 12 10 10 10 10 9 9 9 9 8 7 8 10 10 10 8 6
20 19 17 16 15 12 11 10 10 10 9 9 9 7 6 7 8 10 10 10 8 7
21 20 18 18 17 14 12 11 12 11 11 12 11 10 9 9 9 10 10 9 8 8
20 21 20 18 17 15 13 12 13 13 13 14 14 11 10 10 10 11 11 11 10 8
17 20 18 16 17 16 13 14 14 14 16 15 15 13 12 12 13 13 13 13 12 11

GFSNIL_925_spd_081.txt.gz
Wind_Speed
15 19 22 24 25 24 21 15 15 15 11 10 10 8 9 11 11 11 12 14 15 16
15 15 15 14 14 16 16 16 17 13 8 8 7 8 10 12 13 13 13 13 14 14
11 12 13 14 14 12 12 13 14 12 12 9 9 10 10 13 15 14 14 14 14 14
10 10 10 11 12 13 13 11 9 7 9 7 8 10 11 13 15 15 15 14 14 14
12 12 12 12 12 11 11 10 8 7 8 7 8 10 11 13 14 14 15 15 14 13
13 12 12 12 11 10 9 8 8 9 7 7 8 9 10 12 12 13 13 12 11 11
13 12 12 11 11 10 9 8 8 7 7 7 7 9 10 12 12 12 12 10 10 11
13 13 13 13 12 10 8 7 7 6 7 7 8 9 9 10 12 14 14 13 13 11
15 15 14 14 13 11 9 7 7 7 8 9 9 9 10 11 12 13 13 12 10 6
18 17 16 14 13 11 10 8 8 8 10 10 10 9 9 9 10 10 11 11 9 7
19 19 17 16 14 13 12 10 8 8 9 9 10 9 8 9 10 10 10 10 10 8
22 20 19 19 18 16 14 12 10 8 9 11 11 10 11 10 11 10 10 10 10 8
20 20 21 20 18 17 15 13 11 10 13 13 13 13 12 12 12 12 11 11 10 9
18 19 19 18 17 17 16 14 13 14 14 15 15 15 14 13 15 14 13 14 13 11

GFSNIL_925_spd_084.txt.gz
Wind_Speed
13 15 17 18 19 19 19 18 16 15 16 15 13 10 8 5 6 6 7 8 10 12
11 12 12 11 14 15 16 16 16 14 12 9 7 7 7 6 7 7 8 8 10 11
8 10 10 10 10 10 12 14 14 13 11 9 7 5 6 4 6 6 8 8 10 10
8 7 8 9 10 12 13 15 14 12 9 7 7 6 6 4 6 7 8 8 10 11
8 7 6 8 10 12 13 12 11 9 7 6 5 4 5 5 6 7 8 9 9 9
11 10 9 9 9 10 11 10 9 8 6 5 4 4 3 4 6 7 8 8 7 7
13 13 12 12 12 12 11 10 9 7 5 4 4 3 4 5 7 8 9 9 8 10
14 13 13 13 13 12 10 9 7 6 5 4 4 4 5 5 6 7 9 10 11 12
15 15 15 15 14 12 10 8 7 6 6 6 6 5 5 6 7 8 8 9 9 8
17 16 16 16 16 14 12 10 9 8 7 7 7 6 6 5 7 7 7 8 8 8
19 18 17 17 16 15 13 12 10 9 6 7 7 6 5 6 7 8 9 8 9 9
21 20 19 19 18 17 16 15 13 10 7 7 7 7 7 8 10 10 9 8 9 10
20 21 21 21 20 19 18 16 14 12 9 8 9 9 10 11 13 11 10 10 10 10
16 21 21 19 19 19 17 16 15 13 10 11 11 12 13 12 16 15 11 12 12 12

GFSNIL_925_spd_087.txt.gz
Wind_Speed
9 10 11 12 13 17 19 16 15 17 17 18 18 19 17 12 11 10 9 9 8 8
5 6 6 7 9 12 14 15 16 16 17 17 16 14 14 12 10 7 6 7 7 7
5 6 5 6 6 8 10 14 16 18 17 16 14 13 11 10 9 7 5 6 6 8
4 4 4 4 5 8 10 13 15 16 16 15 14 12 10 8 6 4 4 6 6 7
5 5 5 6 7 9 11 14 15 16 15 14 11 9 7 5 4 3 4 5 5 6
5 5 6 7 9 12 15 16 16 14 13 12 10 8 7 5 3 2 3 4 5 5
9 8 7 10 12 14 14 15 14 13 12 10 9 7 6 5 4 3 1 2 4 6
12 12 11 11 11 12 13 13 13 13 12 11 10 10 9 7 6 5 4 3 4 5
14 15 15 16 16 16 16 16 15 14 13 12 10 9 8 8 7 5 3 2 3 5
16 18 17 16 17 17 17 15 14 14 13 12 10 10 8 7 5 5 4 4 4 6
18 19 17 18 19 18 17 15 14 13 12 9 8 8 8 7 7 6 5 6 7 7
16 20 21 22 22 20 19 18 16 15 13 10 7 7 10 10 10 8 7 7 8 8
12 19 24 25 23 23 21 19 18 16 14 11 7 7 10 11 12 10 9 8 10 10
10 14 20 22 22 23 21 19 18 18 15 13 10 10 12 13 15 14 13 12 13 12

GFSNIL_925_spd_090.txt.gz
Wind_Speed
10 11 12 12 13 14 16 16 16 23 26 21 21 21 21 20 18 16 17 16 15 12
6 8 8 8 9 10 13 15 16 18 20 20 22 22 20 16 16 15 14 14 13 11
3 6 7 8 10 11 10 13 17 20 21 21 21 20 19 18 17 16 15 13 11 12
2 3 5 6 8 10 11 14 17 19 20 21 21 21 20 18 17 13 12 11 9 9
4 4 4 4 6 8 10 12 15 17 18 19 19 18 17 16 15 13 11 9 9 8
5 4 3 3 5 7 9 11 13 15 16 16 17 16 13 13 13 11 9 9 9 8
5 5 5 5 5 7 9 11 13 13 14 15 16 15 14 13 12 11 9 8 7 6
6 5 6 8 9 9 9 9 11 13 14 13 14 15 15 13 11 9 8 6 5 5
10 7 7 8 9 11 13 13 13 12 12 13 13 14 15 12 10 9 9 9 6 6
11 11 11 11 11 12 12 11 11 11 11 11 10 13 13 14 8 8 7 7 6 7
9 12 13 13 15 13 13 14 14 13 13 12 11 14 14 12 9 10 10 10 10 10
9 11 14 17 17 16 16 17 18 16 17 15 12 14 14 13 11 11 10 10 12 11
13 11 13 16 16 18 19 18 20 20 19 17 13 14 12 17 13 12 13 11 11 13
13 12 12 13 14 17 21 20 21 21 20 17 16 14 15 16 16 15 13 13 11 11

GFSNIL_925_spd_093.txt.gz
Wind_Speed
25 27 29 27 23 22 23 25 25 27 29 26 26 22 21 21 22 21 20 18 16 15
6 8 7 8 11 13 12 14 14 16 23 23 22 23 24 24 22 20 19 16 14 13
1 2 4 5 7 7 8 11 14 16 18 25 23 24 23 22 21 20 18 16 14 13
3 3 4 4 5 6 8 10 12 15 16 18 19 22 22 21 20 19 17 15 14 13
2 2 4 4 4 4 4 6 8 10 13 15 17 17 17 19 18 18 16 14 14 13
4 4 3 3 3 5 5 7 9 11 13 14 16 17 16 16 15 15 13 13 13 13
6 5 3 4 4 4 5 7 8 10 12 13 15 14 14 14 13 13 13 13 13 11
7 7 6 6 5 6 7 7 8 9 11 11 13 15 15 15 13 13 12 12 11 12
8 7 7 7 8 9 10 11 11 12 12 13 13 15 17 15 14 14 13 13 11 10
12 10 10 10 11 12 12 12 14 14 14 15 14 16 19 18 13 13 13 12 12 11
13 13 12 12 14 14 14 15 16 16 16 15 16 16 19 19 17 17 16 15 13 13
16 16 16 15 14 14 14 15 17 16 17 18 16 18 20 20 17 14 15 15 15 13
14 14 15 15 16 17 17 16 15 20 20 19 18 17 21 21 18 17 16 14 13 15
13 14 15 16 16 16 16 17 19 21 22 21 20 17 21 22 20 18 17 17 13 13

GFSNIL_925_spd_096.txt.gz
Wind_Speed
13 19 26 28 25 26 32 31 29 36 38 33 34 31 28 31 28 25 21 23 24 21
18 16 20 25 31 33 27 24 29 30 30 27 28 28 28 30 29 24 23 24 23 21
3 2 3 4 6 9 10 12 15 15 17 18 24 25 27 26 24 23 22 23 23 22
1 1 1 2 3 4 8 10 11 13 16 16 20 21 23 23 22 21 23 22 22 20
6 6 6 4 4 6 7 8 10 13 16 18 19 21 21 22 22 23 22 20 19 18
8 6 5 6 8 7 6 8 7 10 12 14 16 18 20 22 21 21 19 20 19 16
9 9 7 7 8 8 8 8 9 9 10 11 13 14 16 17 17 18 18 17 16 15
10 9 9 8 9 9 9 8 10 10 12 13 14 15 16 17 17 18 17 17 15 15
10 10 10 11 11 12 12 11 12 13 14 15 16 17 19 20 20 19 18 17 14 14
9 10 11 11 12 14 14 13 15 16 16 16 17 17 18 19 19 19 19 17 16 15
18 16 14 13 11 14 16 16 18 20 19 19 19 19 19 19 18 18 19 19 18 17
15 16 16 16 17 16 16 18 21 21 20 20 21 22 21 21 24 21 21 20 20 20
21 20 19 15 15 16 16 19 19 19 21 21 22 24 23 23 25 24 24 22 21 22
22 23 21 21 19 16 18 18 18 19 21 22 23 24 24 25 26 27 25 22 21 22

GFSNIL_925_spd_099.txt.gz
Wind_Speed
10 1 5 9 13 16 20 22 20 24 29 30 28 31 28 28 29 26 32 30 29 28
12 12 17 23 24 27 27 22 23 29 32 36 36 35 33 35 36 31 34 36 33 29
6 5 10 9 8 17 21 27 31 31 29 33 32 28 28 30 30 30 31 32 30 26
6 2 1 2 1 2 4 5 7 9 13 16 17 20 25 27 28 25 28 27 27 26
9 5 4 3 3 4 5 6 7 9 10 13 15 16 19 21 21 22 24 24 23 22
10 9 8 7 8 8 7 5 7 9 9 11 14 16 18 20 21 23 23 23 22 21
12 10 10 10 9 9 9 9 8 8 9 11 12 14 16 18 19 20 22 23 24 24
14 14 13 13 12 11 11 10 11 11 11 10 12 14 15 18 20 21 21 21 21 22
14 14 14 14 14 13 14 14 13 12 13 14 14 15 16 16 19 19 20 22 22 21
14 16 15 16 16 17 16 18 18 16 15 17 18 18 17 18 20 20 22 23 21 20
12 13 15 15 16 16 17 17 19 20 20 20 21 19 20 20 22 22 23 24 24 23
12 13 14 15 14 18 19 17 18 19 21 22 23 22 23 22 24 26 26 26 25 24
15 14 14 13 14 17 15 18 19 22 20 21 23 24 24 25 27 27 29 27 25 25
19 16 16 18 18 20 20 20 21 22 21 21 22 25 26 27 28 28 25 27 30 29

GFSNIL_925_spd_102.txt.gz
Wind_Speed
26 23 20 18 18 19 21 21 22 25 27 29 25 23 29 30 27 27 28 26 27 28
9 8 8 4 4 10 16 19 22 26 27 31 34 33 32 31 30 33 35 35 33 31
6 3 3 8 10 12 16 24 26 27 28 30 30 32 34 30 30 29 32 32 29 30
11 7 6 4 2 2 4 6 9 14 21 24 29 29 28 29 29 29 28 29 30 30
14 12 10 7 5 2 3 3 4 6 8 9 10 15 17 21 25 26 27 29 26 29
15 13 12 10 8 7 6 6 6 6 7 9 11 13 16 19 20 21 23 25 26 26
17 14 11 9 8 7 8 8 7 7 8 9 10 12 15 16 19 21 23 24 24 26
16 15 15 14 14 12 10 9 9 10 10 10 12 13 15 15 17 19 20 21 22 25
14 14 16 16 15 15 14 13 13 12 13 13 14 15 14 15 18 20 22 22 22 23
16 17 17 15 16 17 18 18 17 16 16 17 17 17 17 17 18 19 21 23 24 23
14 14 16 16 15 16 19 21 20 20 19 21 22 22 20 19 19 21 22 23 25 26
18 21 18 17 17 17 20 20 22 23 24 24 25 22 23 22 22 24 26 25 25 27
13 12 12 13 16 16 18 19 20 23 23 24 25 24 24 23 23 25 27 29 29 27
15 15 16 16 19 20 20 19 20 22 21 21 21 24 23 22 22 22 22 24 25 29

GFSNIL_925_spd_105.txt.gz
Wind_Speed
21 19 17 21 21 16 11 12 11 12 12 14 14 11 16 21 21 22 20 25 26 28
18 15 17 17 14 13 10 11 13 16 16 18 20 24 30 31 30 27 25 29 30 33
20 20 14 11 8 4 6 10 15 19 24 27 28 31 32 32 31 32 33 32 32 32
19 16 12 10 8 5 1 2 5 12 23 27 27 29 30 31 30 27 28 29 31 31
20 18 16 13 9 6 3 0 2 5 7 7 10 11 15 22 22 22 25 26 27 29
22 20 17 14 11 9 8 7 6 6 6 7 8 9 11 14 17 20 21 23 26 26
22 20 18 16 15 12 11 10 10 10 10 10 11 12 12 13 15 18 20 21 22 24
20 18 17 17 16 15 15 15 13 13 12 12 13 13 13 14 16 18 20 21 22 24
18 18 18 17 16 16 16 17 16 15 16 16 17 16 17 17 19 20 20 22 24 24
19 20 20 18 18 19 19 20 20 19 19 20 20 19 18 19 20 22 24 24 24 24
19 20 19 18 18 18 18 20 21 21 21 21 21 21 21 20 22 22 23 26 27 26
18 19 19 17 17 19 21 24 23 23 23 23 25 23 24 23 24 26 26 26 27 28
13 12 14 15 15 17 17 19 21 21 22 22 22 21 20 20 21 20 21 24 27 26
14 14 14 17 18 19 20 20 20 23 25 21 20 20 21 21 22 19 20 21 22 25

GFSNIL_925_spd_108.txt.gz
Wind_Speed
22 23 26 25 23 18 11 11 10 14 17 16 18 21 27 29 28 22 20 21 28 25
15 18 26 22 17 21 15 15 11 9 7 6 7 7 9 13 13 15 17 21 27 25
19 20 25 22 16 10 10 7 7 9 12 17 20 22 22 23 26 26 28 30 32 34
25 24 24 22 18 16 13 10 5 4 9 18 21 23 25 27 30 28 25 28 27 28
27 27 27 24 19 16 14 11 10 7 8 8 8 7 8 13 17 23 27 28 25 27
30 30 26 23 20 18 15 14 12 9 8 7 5 6 9 11 12 13 15 17 17 20
26 25 23 22 21 20 19 18 16 15 14 13 12 11 11 13 13 14 14 16 17 18
24 23 21 21 20 19 19 19 18 17 16 16 16 16 17 16 17 17 18 17 17 18
23 22 22 21 20 19 20 19 18 19 19 20 20 18 17 17 18 19 19 22 22 22
21 20 19 18 18 19 20 20 21 22 22 22 21 19 19 19 20 20 20 21 22 24
19 18 18 18 18 20 20 21 21 22 23 24 25 24 22 21 22 22 22 23 24 24
20 20 21 20 20 19 21 23 24 23 24 27 29 27 24 22 25 23 23 22 23 25
15 14 15 16 17 16 17 17 19 20 22 23 24 24 24 24 24 24 23 22 23 24
12 12 11 13 15 18 20 21 22 23 23 23 21 21 18 18 22 22 23 23 23 22

GFSNIL_925_spd_111.txt.gz
Wind_Speed
20 19 19 19 22 23 23 24 27 30 31 34 33 32 30 28 30 30 29 26 26 26
10 14 18 20 23 24 21 17 14 11 16 14 18 19 20 23 26 27 26 28 33 34
7 4 7 11 12 14 13 17 15 12 8 6 4 3 6 6 11 14 18 23 25 26
24 22 27 27 27 25 22 20 20 15 12 6 1 6 7 9 12 17 22 28 26 28
21 23 34 33 29 24 24 20 19 16 14 12 9 11 6 6 6 5 8 11 20 23
18 36 33 30 28 24 24 23 18 17 16 14 14 10 8 8 10 11 10 12 14 13
29 30 28 27 26 24 23 21 21 20 18 16 14 14 15 14 12 12 13 14 14 14
25 25 24 23 23 22 22 21 19 18 18 17 17 17 16 15 15 16 17 17 16 16
22 22 22 21 20 20 20 20 19 20 20 21 19 17 16 15 17 18 18 19 21 21
20 19 19 18 18 19 19 18 19 19 19 20 20 19 17 16 16 18 19 21 22 23
17 17 16 17 17 17 17 18 19 19 20 21 20 20 18 17 19 20 20 21 20 19
16 15 15 17 17 17 17 19 19 18 19 20 21 21 21 20 18 15 16 16 16 17
13 12 11 10 10 11 12 12 14 15 15 15 16 15 15 16 15 17 18 19 20 21
11 10 8 8 9 12 13 14 15 15 18 17 16 17 17 17 19 19 20 20 21 20

GFSNIL_925_spd_114.txt.gz
Wind_Speed
20 19 17 15 13 15 16 18 19 20 21 23 25 28 30 31 34 30 32 32 28 26
18 17 13 12 14 16 17 18 18 20 20 27 29 28 32 35 33 31 31 28 26 27
11 5 1 6 4 9 14 15 13 14 13 11 7 4 6 4 14 25 24 24 24 25
23 22 18 14 15 16 15 13 13 15 17 12 8 5 5 5 1 7 11 15 17 19
29 27 22 20 24 20 25 22 20 18 18 16 14 11 10 8 7 5 4 6 6 5
30 29 19 23 22 15 25 22 21 20 19 17 16 14 13 11 11 9 8 9 11 11
16 13 12 15 15 22 22 21 20 17 18 15 13 14 12 12 11 11 11 11 10 11
12 12 13 14 14 17 19 18 17 15 15 14 13 14 14 12 10 11 11 9 9 9
13 14 14 13 15 16 15 13 13 13 12 12 11 15 15 14 11 11 11 13 13 13
10 11 11 11 12 13 13 12 12 12 13 12 10 15 15 15 11 12 13 13 15 16
9 10 10 11 11 11 11 12 12 12 13 12 11 16 16 17 11 11 12 14 15 17
6 6 7 8 8 9 9 9 10 10 11 12 12 14 15 15 12 13 14 15 16 18
8 8 9 10 11 12 12 10 10 10 9 9 9 9 11 12 11 12 13 14 15 15
9 8 8 7 6 7 7 7 7 7 7 6 8 10 11 12 13 14 17 16 16 16

GFSNIL_925_spd_117.txt.gz
Wind_Speed
21 21 23 19 19 21 20 19 15 16 18 19 22 24 25 28 30 29 31 32 31 32
17 19 16 17 14 15 15 13 12 14 16 18 20 21 22 24 25 27 29 30 32 32
10 10 9 6 3 2 7 10 11 10 12 15 18 16 15 13 13 20 27 28 31 31
22 22 22 19 15 13 11 8 7 6 7 7 8 10 7 6 5 3 2 5 5 9
30 27 27 26 24 21 22 20 19 18 18 16 13 13 13 11 10 9 10 9 7 8
30 27 25 25 21 23 21 22 21 19 19 13 15 17 15 12 13 12 11 12 11 11
24 20 19 22 18 17 18 17 16 18 13 11 13 15 14 11 12 10 10 11 12 11
17 14 16 13 11 11 10 10 11 10 10 11 14 14 13 12 10 10 9 8 9 10
12 11 11 9 8 8 9 9 10 11 11 12 12 15 15 12 8 9 10 11 12 13
8 9 9 8 9 10 10 9 9 9 10 10 9 14 14 14 9 9 11 11 13 14
6 5 6 6 7 7 7 8 9 9 10 9 9 13 14 14 11 10 11 11 13 13
7 6 6 6 7 8 9 10 10 10 10 10 10 14 16 15 11 10 10 11 12 12
6 5 5 6 6 7 8 8 9 9 8 7 8 10 12 14 13 12 13 12 11 10
5 5 6 6 6 7 7 7 7 7 6 5 6 7 9 8 8 10 12 12 12 13